Date String (YYYY-MM-DD hh:mm:ss) UTC,Instrument flags,absolute air pressure of the measurement (hPa),sample flow rate (lpm),inlet stack bypass flow (lpm),air temperature of the measurement (°C),ambient temperature measured by the external sensor (°C),aerosol sample conditioner tube jacket temperature (°C),OPC LED temperature (°C),internal box temperature (°C),relative humidity of the measurement (%),span deviation,mass concentration of particles derived from Lorenz-Mie calculation of OPC scattering (μg/m³),mass concentration of particles derived from Lorenz-Mie calculation of OPC scattering (μg/m³),mass concentration of particles derived from Lorenz-Mie calculation of OPC scattering (μg/m³)
DateTimeUTC,F1_M11,P_M11,Q1_M11,Q2_M11,T1_M11,T2_M11,T3_M11,T4_M11,T5_M11,U1_M11,ZSPAN_M11,X0_M11,X2_M11,X1_M11
2024-03-28 23:00:00,SystemResetWarning,0820.3,5.01,000.00,025.1,024.4,000.0,033.5,026.9,10.8,0000.0,0005.75,0002.86,0001.74
2024-03-28 23:01:00,SystemResetWarning,0820.3,5.01,000.00,025.1,024.4,000.0,033.5,026.9,11.3,0000.0,0005.20,0002.85,0001.74
2024-03-28 23:02:00,SystemResetWarning,0820.2,5.00,000.00,025.1,024.4,000.0,033.5,026.9,11.3,0000.0,0006.49,0002.90,0001.75
2024-03-28 23:03:00,SystemResetWarning,0820.2,4.98,000.00,025.1,024.4,000.0,033.5,026.9,10.9,0000.0,0006.47,0002.92,0001.75
2024-03-28 23:04:00,SystemResetWarning,0820.1,5.00,000.00,025.1,024.5,000.0,033.5,026.9,10.8,0000.0,0006.62,0002.97,0001.75
2024-03-28 23:05:00,SystemResetWarning,0820.3,5.01,000.00,025.1,024.5,000.0,033.5,026.9,11.1,0000.0,0007.44,0003.03,0001.77
2024-03-28 23:06:00,SystemResetWarning,0820.1,5.01,000.00,025.1,024.5,000.0,033.5,026.9,10.8,0000.0,0008.49,0003.02,0001.76
2024-03-28 23:07:00,SystemResetWarning,0820.3,5.00,000.00,025.1,024.5,000.0,033.5,027.0,10.9,0000.0,0008.60,0002.93,0001.75
2024-03-28 23:08:00,SystemResetWarning,0820.1,5.00,000.00,025.1,024.5,000.0,033.5,027.0,10.7,0000.0,0008.40,0002.83,0001.73
2024-03-28 23:09:00,SystemResetWarning,0820.1,5.00,000.00,025.1,024.5,000.0,033.6,027.0,11.0,0000.0,0008.41,0002.82,0001.73
2024-03-28 23:10:00,SystemResetWarning,0820.1,4.99,000.00,025.2,024.5,000.0,033.6,027.0,10.8,0000.0,0008.42,0002.80,0001.72
2024-03-28 23:11:00,SystemResetWarning,0820.1,5.00,000.00,025.2,024.5,000.0,033.6,027.0,10.7,0000.0,0008.50,0002.78,0001.70
2024-03-28 23:12:00,SystemResetWarning,0820.1,4.99,000.00,025.2,024.5,000.0,033.6,027.0,11.0,0000.0,0008.58,0002.81,0001.70
2024-03-28 23:13:00,SystemResetWarning,0820.0,5.00,000.00,025.2,024.5,000.0,033.6,027.0,10.7,0000.0,0008.08,0002.72,0001.67
2024-03-28 23:14:00,SystemResetWarning,0820.0,5.01,000.00,025.2,024.5,000.0,033.6,027.0,10.9,0000.0,0007.99,0002.70,0001.67
2024-03-28 23:15:00,SystemResetWarning,0820.0,5.00,000.00,025.2,024.5,000.0,033.6,027.0,10.8,0000.0,0007.98,0002.69,0001.65
2024-03-28 23:16:00,SystemResetWarning,0820.0,5.01,000.00,025.2,024.5,000.0,033.6,027.0,10.9,0000.0,0007.59,0002.70,0001.64
2024-03-28 23:17:00,SystemResetWarning,0820.1,5.00,000.00,025.2,024.5,000.0,033.6,027.0,10.8,0000.0,0006.24,0002.71,0001.64
2024-03-28 23:18:00,SystemResetWarning,0820.0,4.99,000.00,025.2,024.6,000.0,033.6,027.1,10.8,0000.0,0005.71,0002.69,0001.65
2024-03-28 23:19:00,SystemResetWarning,0820.1,5.00,000.00,025.2,024.6,000.0,033.6,027.1,10.9,0000.0,0005.71,0002.68,0001.65
2024-03-28 23:20:00,SystemResetWarning,0820.0,5.00,000.00,025.3,024.6,000.0,033.7,027.1,11.0,0000.0,0005.99,0002.71,0001.65
2024-03-28 23:21:00,SystemResetWarning,0820.0,5.00,000.00,025.3,024.6,000.0,033.7,027.1,11.0,0000.0,0005.97,0002.69,0001.65
2024-03-28 23:22:00,SystemResetWarning,0819.9,5.00,000.00,025.3,024.6,000.0,033.7,027.1,11.1,0000.0,0005.88,0002.70,0001.64
2024-03-28 23:23:00,SystemResetWarning,0820.2,5.00,000.00,025.3,024.6,000.0,033.7,027.1,11.0,0000.0,0005.81,0002.67,0001.64
2024-03-28 23:24:00,SystemResetWarning,0820.0,4.99,000.00,025.3,024.6,000.0,033.7,027.1,10.8,0000.0,0005.55,0002.71,0001.65
2024-03-28 23:25:00,SystemResetWarning,0820.0,5.00,000.00,025.3,024.6,000.0,033.7,027.1,10.6,0000.0,0005.74,0002.74,0001.65
2024-03-28 23:26:00,SystemResetWarning,0819.9,5.00,000.00,025.3,024.6,000.0,033.7,027.1,10.6,0000.0,0005.83,0002.77,0001.65
2024-03-28 23:27:00,SystemResetWarning,0819.9,5.01,000.00,025.3,024.5,000.0,033.7,027.1,10.7,0000.0,0005.79,0002.76,0001.66
2024-03-28 23:28:00,SystemResetWarning,0820.0,5.00,000.00,025.3,024.5,000.0,033.7,027.1,10.8,0000.0,0005.69,0002.81,0001.67
2024-03-28 23:29:00,SystemResetWarning,0819.9,5.00,000.00,025.3,024.5,000.0,033.7,027.1,10.9,0000.0,0005.63,0002.84,0001.67
2024-03-28 23:30:00,SystemResetWarning,0820.1,5.01,000.00,025.3,024.5,000.0,033.7,027.1,10.7,0000.0,0005.66,0002.88,0001.68
2024-03-28 23:31:00,SystemResetWarning,0819.9,5.01,000.00,025.3,024.4,000.0,033.7,027.0,10.8,0000.0,0005.49,0002.87,0001.68
2024-03-28 23:32:00,SystemResetWarning,0819.9,5.00,000.00,025.3,024.4,000.0,033.7,027.0,11.1,0000.0,0005.37,0002.88,0001.68
2024-03-28 23:33:00,SystemResetWarning,0820.0,5.00,000.00,025.3,024.4,000.0,033.7,027.0,10.9,0000.0,0005.37,0002.90,0001.69
2024-03-28 23:34:00,SystemResetWarning,0819.9,4.99,000.00,025.2,024.4,000.0,033.7,027.0,11.0,0000.0,0005.77,0002.94,0001.70
2024-03-28 23:35:00,SystemResetWarning,0819.9,5.00,000.00,025.2,024.4,000.0,033.7,027.0,11.3,0000.0,0006.96,0002.92,0001.69
2024-03-28 23:36:00,SystemResetWarning,0819.9,5.00,000.00,025.2,024.4,000.0,033.7,027.0,11.2,0000.0,0007.71,0002.97,0001.70
2024-03-28 23:37:00,SystemResetWarning,0819.9,4.99,000.00,025.2,024.4,000.0,033.7,027.0,11.4,0000.0,0008.30,0002.97,0001.71
2024-03-28 23:38:00,SystemResetWarning,0819.9,5.01,000.00,025.2,024.4,000.0,033.7,027.0,11.1,0000.0,0008.31,0002.89,0001.70
2024-03-28 23:39:00,SystemResetWarning,0820.0,5.00,000.00,025.2,024.5,000.0,033.7,027.1,11.1,0000.0,0008.16,0002.80,0001.68
2024-03-28 23:40:00,SystemResetWarning,0820.0,5.00,000.00,025.3,024.5,000.0,033.7,027.1,11.0,0000.0,0008.14,0002.73,0001.67
2024-03-28 23:41:00,SystemResetWarning,0820.0,5.00,000.00,025.3,024.5,000.0,033.8,027.1,10.7,0000.0,0008.21,0002.76,0001.66
2024-03-28 23:42:00,SystemResetWarning,0820.0,5.01,000.00,025.3,024.5,000.0,033.7,027.1,10.6,0000.0,0008.26,0002.78,0001.66
2024-03-28 23:43:00,SystemResetWarning,0820.1,4.99,000.00,025.3,024.5,000.0,033.8,027.1,10.5,0000.0,0008.28,0002.79,0001.69
2024-03-28 23:44:00,SystemResetWarning,0820.0,4.99,000.00,025.3,024.6,000.0,033.8,027.1,10.5,0000.0,0008.28,0002.77,0001.70
2024-03-28 23:45:00,SystemResetWarning,0820.1,5.00,000.00,025.3,024.6,000.0,033.8,027.1,10.5,0000.0,0008.29,0002.82,0001.71
2024-03-28 23:46:00,SystemResetWarning,0819.9,5.01,000.00,025.3,024.6,000.0,033.8,027.1,10.4,0000.0,0007.78,0002.83,0001.72
2024-03-28 23:47:00,SystemResetWarning,0820.0,5.01,000.00,025.3,024.6,000.0,033.8,027.2,10.4,0000.0,0006.97,0002.78,0001.71
2024-03-28 23:48:00,SystemResetWarning,0820.0,5.00,000.00,025.3,024.6,000.0,033.8,027.2,10.5,0000.0,0005.99,0002.75,0001.70
2024-03-28 23:49:00,SystemResetWarning,0820.1,5.00,000.00,025.3,024.6,000.0,033.8,027.2,10.4,0000.0,0006.02,0002.83,0001.70
2024-03-28 23:50:00,SystemResetWarning,0820.3,5.00,000.00,025.4,024.6,000.0,033.8,027.2,10.3,0000.0,0007.21,0002.91,0001.71
2024-03-28 23:51:00,SystemResetWarning,0820.1,5.00,000.00,025.4,024.7,000.0,033.8,027.2,10.1,0000.0,0007.26,0002.95,0001.72
2024-03-28 23:52:00,SystemResetWarning,0820.0,5.00,000.00,025.4,024.7,000.0,033.8,027.2,10.4,0000.0,0007.40,0002.96,0001.72
2024-03-28 23:53:00,SystemResetWarning,0820.0,4.99,000.00,025.4,024.6,000.0,033.8,027.2,10.2,0000.0,0007.44,0002.97,0001.71
2024-03-28 23:54:00,SystemResetWarning,0820.1,5.00,000.00,025.4,024.6,000.0,033.8,027.2,10.4,0000.0,0007.32,0002.89,0001.68
2024-03-28 23:55:00,SystemResetWarning,0820.0,5.00,000.00,025.4,024.6,000.0,033.8,027.2,10.4,0000.0,0007.32,0002.91,0001.66
2024-03-28 23:56:00,SystemResetWarning,0820.1,5.01,000.00,025.4,024.6,000.0,033.8,027.2,10.7,0000.0,0007.05,0002.85,0001.64
2024-03-28 23:57:00,SystemResetWarning,0819.9,5.00,000.00,025.4,024.6,000.0,033.8,027.2,10.4,0000.0,0007.18,0002.90,0001.64
2024-03-28 23:58:00,SystemResetWarning,0819.9,5.00,000.00,025.4,024.6,000.0,033.9,027.2,10.2,0000.0,0007.28,0002.93,0001.65
2024-03-28 23:59:00,SystemResetWarning,0819.8,5.00,000.00,025.4,024.6,000.0,033.9,027.2,10.1,0000.0,0007.20,0002.95,0001.65
